Location: Diebersbach
(48.5163°N, 8.0558°E)
Time: 13:49:59
(UTC+00:00)

NOSS 3-1 (C) - Pass Details

Date: 20 June 2021
Orbit: 722 x 1486 km, 63.4° (Epoch: 30 July)

Event Time Altitude Azimuth Distance (km) Brightness Sun altitude
Exits shadow 00:31:15 16° 241° (WSW) 2,027 4.8 -16.7°
Maximum altitude 00:35:41 60° 318° (NW) 1,013 3.7 -16.5°
Drops below altitude 10° 00:42:06 10° 39° (NE) 2,821 7.0 -16.2°
Sets 00:45:02 0° 43° (NE) 3,903 7.9 -16.1°
